When you browse on this site, cookies collect data to enhance your experience and personalize the content and advertising you see.
Visit our Privacy Policy to learn more. By continuing to use the site, you agree to this use of cookies and data.
  • In Österreich
  • Länderverzeichnis
  • Für 7 Tage
  • Wassertemperatur
  • Satellitenkarten
  • Wetterkarte
  • News
  • Widgets
  • user-avatar
    Anmelden

    Stündliche Wetter Saurimo

    Heute, 19 Juli, Freitag

    Zeit Temperatur Niederschläge Wind Luftdruck Luftfeuchtigkeit
    00:00 +16°C° 0 mm 2 m/S 670 mmHg 28%
    01:00 +15°C° 0 mm 2 m/S 670 mmHg 31%
    02:00 +15°C° 0 mm 2 m/S 670 mmHg 34%
    03:00 +14°C° 0 mm 2 m/S 670 mmHg 36%
    04:00 +14°C° 0 mm 2 m/S 670 mmHg 39%
    05:00 +14°C° 0 mm 3 m/S 671 mmHg 40%
    06:00 +14°C° 0 mm 3 m/S 671 mmHg 42%
    07:00 +16°C° 0 mm 3 m/S 672 mmHg 42%
    08:00 +19°C° 0 mm 3 m/S 672 mmHg 36%
    09:00 +23°C° 0 mm 4 m/S 673 mmHg 30%
    10:00 +27°C° 0 mm 4 m/S 674 mmHg 25%
    11:00 +29°C° 0 mm 4 m/S 674 mmHg 21%
    12:00 +30°C° 0 mm 3 m/S 673 mmHg 18%
    13:00 +31°C° 0 mm 3 m/S 673 mmHg 16%
    14:00 +31°C° 0 mm 3 m/S 672 mmHg 16%
    15:00 +30°C° 0 mm 2 m/S 672 mmHg 15%
    16:00 +30°C° 0 mm 2 m/S 671 mmHg 15%
    17:00 +27°C° 0 mm 2 m/S 671 mmHg 19%
    18:00 +24°C° 0 mm 1 m/S 671 mmHg 23%
    19:00 +21°C° 0 mm 1 m/S 670 mmHg 27%
    20:00 +20°C° 0 mm 1 m/S 671 mmHg 29%
    21:00 +19°C° 0 mm 1 m/S 671 mmHg 31%
    22:00 +18°C° 0 mm 1 m/S 672 mmHg 32%
    23:00 +18°C° 0 mm 1 m/S 671 mmHg 34%

    Morgen, 20 Juli, Samstag

    Zeit Temperatur Niederschläge Wind Luftdruck Luftfeuchtigkeit
    00:00 +16°C° 0 mm 2 m/S 671 mmHg 35%
    01:00 +15°C° 0 mm 2 m/S 670 mmHg 36%
    02:00 +15°C° 0 mm 2 m/S 670 mmHg 37%
    03:00 +14°C° 0 mm 2 m/S 670 mmHg 38%
    04:00 +14°C° 0 mm 2 m/S 670 mmHg 39%
    05:00 +14°C° 0 mm 2 m/S 671 mmHg 38%
    06:00 +14°C° 0 mm 3 m/S 671 mmHg 37%
    07:00 +16°C° 0 mm 3 m/S 672 mmHg 36%
    08:00 +20°C° 0 mm 3 m/S 673 mmHg 31%
    09:00 +25°C° 0 mm 3 m/S 674 mmHg 26%
    10:00 +29°C° 0 mm 4 m/S 674 mmHg 21%
    11:00 +30°C° 0 mm 3 m/S 674 mmHg 18%
    12:00 +33°C° 0 mm 3 m/S 673 mmHg 16%
    13:00 +34°C° 0 mm 2 m/S 673 mmHg 13%
    14:00 +34°C° 0 mm 2 m/S 672 mmHg 13%
    15:00 +34°C° 0 mm 2 m/S 672 mmHg 13%
    16:00 +32°C° 0 mm 1 m/S 671 mmHg 12%
    17:00 +29°C° 0 mm 1 m/S 671 mmHg 16%
    18:00 +26°C° 0 mm 1 m/S 671 mmHg 19%
    19:00 +23°C° 0 mm 1 m/S 670 mmHg 23%
    20:00 +22°C° 0 mm 1 m/S 671 mmHg 25%
    21:00 +21°C° 0 mm 1 m/S 671 mmHg 27%
    22:00 +20°C° 0 mm 1 m/S 671 mmHg 29%
    23:00 +18°C° 0 mm 2 m/S 671 mmHg 31%

    übermorgen, 21 Juli, Sonntag

    Zeit Temperatur Niederschläge Wind Luftdruck Luftfeuchtigkeit
    00:00 +18°C° 0 mm 2 m/S 670 mmHg 32%
    01:00 +17°C° 0 mm 2 m/S 670 mmHg 33%
    02:00 +17°C° 0 mm 2 m/S 670 mmHg 34%
    03:00 +16°C° 0 mm 2 m/S 670 mmHg 36%
    04:00 +15°C° 0 mm 2 m/S 670 mmHg 37%
    05:00 +16°C° 0 mm 2 m/S 670 mmHg 35%
    06:00 +17°C° 0 mm 2 m/S 671 mmHg 34%
    07:00 +17°C° 0 mm 3 m/S 672 mmHg 33%
    08:00 +21°C° 0 mm 3 m/S 673 mmHg 28%
    09:00 +26°C° 0 mm 3 m/S 673 mmHg 23%
    10:00 +30°C° 0 mm 4 m/S 674 mmHg 18%
    11:00 +33°C° 0 mm 3 m/S 674 mmHg 16%
    12:00 +35°C° 0 mm 3 m/S 673 mmHg 14%
    13:00 +36°C° 0 mm 2 m/S 673 mmHg 12%
    14:00 +36°C° 0 mm 2 m/S 672 mmHg 12%
    15:00 +35°C° 0 mm 2 m/S 672 mmHg 12%
    16:00 +35°C° 0 mm 2 m/S 671 mmHg 12%
    17:00 +31°C° 0 mm 2 m/S 671 mmHg 15%
    18:00 +28°C° 0 mm 2 m/S 671 mmHg 19%
    19:00 +24°C° 0 mm 1 m/S 670 mmHg 22%
    20:00 +23°C° 0 mm 2 m/S 670 mmHg 24%
    21:00 +21°C° 0 mm 2 m/S 671 mmHg 26%
    22:00 +20°C° 0 mm 2 m/S 671 mmHg 28%
    23:00 +20°C° 0 mm 2 m/S 670 mmHg 29%

    22 Juli, Montag

    Zeit Temperatur Niederschläge Wind Luftdruck Luftfeuchtigkeit
    00:00 +19°C° 0 mm 2 m/S 670 mmHg 30%
    01:00 +18°C° 0 mm 2 m/S 670 mmHg 31%
    02:00 +18°C° 0 mm 2 m/S 670 mmHg 31%
    03:00 +17°C° 0 mm 2 m/S 670 mmHg 32%
    04:00 +17°C° 0 mm 3 m/S 670 mmHg 32%
    05:00 +17°C° 0 mm 3 m/S 670 mmHg 32%
    06:00 +18°C° 0 mm 3 m/S 671 mmHg 31%
    07:00 +18°C° 0 mm 3 m/S 671 mmHg 31%
    08:00 +22°C° 0 mm 3 m/S 672 mmHg 26%
    09:00 +26°C° 0 mm 4 m/S 673 mmHg 22%
    10:00 +30°C° 0 mm 4 m/S 673 mmHg 18%
    11:00 +31°C° 0 mm 3 m/S 673 mmHg 16%
    12:00 +34°C° 0 mm 3 m/S 672 mmHg 14%
    13:00 +36°C° 0 mm 2 m/S 672 mmHg 13%
    14:00 +35°C° 0 mm 2 m/S 671 mmHg 12%
    15:00 +35°C° 0 mm 2 m/S 671 mmHg 12%
    16:00 +35°C° 0 mm 2 m/S 670 mmHg 12%
    17:00 +31°C° 0 mm 2 m/S 670 mmHg 15%
    18:00 +28°C° 0 mm 2 m/S 670 mmHg 18%
    19:00 +25°C° 0 mm 1 m/S 670 mmHg 21%
    20:00 +24°C° 0 mm 1 m/S 670 mmHg 24%
    21:00 +21°C° 0 mm 2 m/S 670 mmHg 26%
    22:00 +20°C° 0 mm 2 m/S 670 mmHg 28%
    23:00 +20°C° 0 mm 2 m/S 670 mmHg 29%

    23 Juli, Dienstag

    Zeit Temperatur Niederschläge Wind Luftdruck Luftfeuchtigkeit
    00:00 +19°C° 0 mm 2 m/S 670 mmHg 29%
    01:00 +19°C° 0 mm 2 m/S 669 mmHg 30%
    02:00 +18°C° 0 mm 2 m/S 669 mmHg 31%
    03:00 +17°C° 0 mm 2 m/S 669 mmHg 33%
    04:00 +16°C° 0 mm 2 m/S 669 mmHg 34%
    05:00 +16°C° 0 mm 2 m/S 670 mmHg 34%
    06:00 +17°C° 0 mm 2 m/S 670 mmHg 34%
    07:00 +17°C° 0 mm 2 m/S 671 mmHg 34%
    08:00 +21°C° 0 mm 2 m/S 672 mmHg 30%
    09:00 +25°C° 0 mm 3 m/S 673 mmHg 25%
    10:00 +29°C° 0 mm 3 m/S 673 mmHg 20%
    11:00 +31°C° 0 mm 3 m/S 673 mmHg 18%
    12:00 +34°C° 0 mm 2 m/S 672 mmHg 16%
    13:00 +36°C° 0 mm 2 m/S 672 mmHg 13%
    14:00 +35°C° 0 mm 2 m/S 671 mmHg 13%
    15:00 +34°C° 0 mm 1 m/S 671 mmHg 13%
    16:00 +34°C° 0 mm 1 m/S 670 mmHg 13%
    17:00 +31°C° 0 mm 1 m/S 670 mmHg 16%
    18:00 +28°C° 0 mm 2 m/S 670 mmHg 19%
    19:00 +25°C° 0 mm 2 m/S 670 mmHg 22%
    20:00 +24°C° 0 mm 2 m/S 670 mmHg 23%
    21:00 +23°C° 0 mm 1 m/S 670 mmHg 24%
    22:00 +22°C° 0 mm 1 m/S 670 mmHg 25%
    23:00 +21°C° 0 mm 1 m/S 670 mmHg 26%

    24 Juli, Mittwoch

    Zeit Temperatur Niederschläge Wind Luftdruck Luftfeuchtigkeit
    00:00 +21°C° 0 mm 1 m/S 670 mmHg 28%
    01:00 +20°C° 0 mm 1 m/S 669 mmHg 30%
    02:00 +18°C° 0 mm 2 m/S 669 mmHg 30%
    03:00 +18°C° 0 mm 2 m/S 669 mmHg 31%
    04:00 +17°C° 0 mm 2 m/S 669 mmHg 32%
    05:00 +18°C° 0 mm 2 m/S 670 mmHg 31%
    06:00 +18°C° 0 mm 2 m/S 670 mmHg 30%
    07:00 +18°C° 0 mm 2 m/S 671 mmHg 29%
    08:00 +23°C° 0 mm 2 m/S 672 mmHg 24%
    09:00 +28°C° 0 mm 2 m/S 672 mmHg 19%
    10:00 +33°C° 0 mm 3 m/S 673 mmHg 14%
    11:00 +34°C° 0 mm 3 m/S 673 mmHg 12%
    12:00 +36°C° 0 mm 2 m/S 672 mmHg 10%
    13:00 +38°C° 0 mm 2 m/S 672 mmHg 9%
    14:00 +37°C° 0 mm 2 m/S 671 mmHg 9%
    15:00 +37°C° 0 mm 2 m/S 671 mmHg 9%
    16:00 +36°C° 0 mm 2 m/S 670 mmHg 9%
    17:00 +32°C° 0 mm 2 m/S 670 mmHg 11%
    18:00 +28°C° 0 mm 2 m/S 670 mmHg 14%
    19:00 +25°C° 0 mm 1 m/S 669 mmHg 16%
    20:00 +24°C° 0 mm 1 m/S 670 mmHg 17%
    21:00 +23°C° 0 mm 2 m/S 670 mmHg 18%
    22:00 +21°C° 0 mm 2 m/S 670 mmHg 19%
    23:00 +20°C° 0 mm 2 m/S 670 mmHg 19%
    Mehr zeigen